Location: Unspecified
(0.0000°N, 0.0000°E)
Time: 13:09:59
(UTC+00:00)

Vanguard 1 - All Passes

Search period start: 24 April 2017 00:00
Search period end: 04 May 2017 00:00
Orbit: 654 x 3830 km, 34.2° (Epoch: 22 April)

Date Brightness Start Highest point End Pass type
(mag) Time Alt. Az. Time Alt. Az. Time Alt. Az.
24 Apr - 00:23:15 10° W 00:42:08 32° NNW 01:00:07 10° NNE visible
24 Apr - 03:04:22 10° NW 03:14:35 15° N 03:22:58 10° NNE visible
24 Apr - 05:37:54 10° NNW 05:44:54 15° N 05:50:12 10° NE visible
24 Apr - 08:01:00 10° NW 08:09:33 41° NNE 08:14:48 10° E daylight
24 Apr - 10:25:17 10° W 10:29:54 24° SW 10:33:39 10° SSE daylight
24 Apr - 17:36:21 10° S 17:43:55 19° SE 17:54:33 10° ESE daylight
24 Apr - 19:53:52 10° SW 20:07:52 66° SE 20:30:24 10° ENE visible
24 Apr - 22:16:22 10° WSW 22:34:39 57° NW 22:57:40 10° NE visible
25 Apr - 00:47:39 10° WNW 01:05:13 26° NNW 01:21:21 10° NNE visible
25 Apr - 03:29:11 10° NNW 03:38:16 14° N 03:45:37 10° NNE visible
25 Apr - 05:58:43 10° NNW 06:07:25 20° NNE 06:13:26 10° ENE daylight
25 Apr - 08:22:10 10° NW 08:30:59 65° NNE 08:36:12 10° ESE daylight
25 Apr - 10:48:34 10° WSW 10:50:56 13° SW 10:53:05 10° S daylight
25 Apr - 17:56:16 10° SSW 18:05:27 27° SE 18:19:33 10° E visible
25 Apr - 20:14:51 10° SW 20:29:22 82° SE 20:52:40 10° NE visible
25 Apr - 22:38:42 10° W 22:56:59 47° NNW 23:18:57 10° NE visible
26 Apr - 01:12:41 10° WNW 01:28:40 22° NNW 01:42:51 10° NNE visible
26 Apr - 03:52:35 10° NNW 04:01:46 15° N 04:08:59 10° NNE visible
26 Apr - 06:19:36 10° NNW 06:29:40 26° NNE 06:36:02 10° ENE daylight
26 Apr - 08:43:39 10° WNW 08:52:09 77° SW 08:57:16 10° SE daylight
26 Apr - 18:16:31 10° SSW 18:26:46 38° SE 18:43:36 10° ENE visible
26 Apr - 20:36:03 10° WSW 20:51:01 82° NW 21:14:34 10° NE visible
26 Apr - 23:01:34 10° W 23:19:36 38° NNW 23:40:14 10° NNE visible
27 Apr - 01:38:06 10° NW 01:52:25 19° NNW 02:04:45 10° NNE visible
27 Apr - 04:14:51 10° NNW 04:25:01 17° N 04:32:34 10° NE visible
27 Apr - 06:40:37 10° NW 06:51:39 36° NNE 06:58:08 10° E daylight
27 Apr - 09:05:34 10° WNW 09:13:07 45° SW 09:17:58 10° SSE daylight
27 Apr - 18:37:01 10° SSW 18:47:58 50° SE 19:06:55 10° ENE visible
27 Apr - 20:57:33 10° WSW 21:12:54 67° NW 21:36:14 10° NE visible
27 Apr - 23:25:00 10° W 23:42:32 31° NNW 00:01:35 10° NNE visible
28 Apr - 02:03:16 10° NW 02:16:21 17° N 02:27:17 10° NNE visible
28 Apr - 04:36:29 10° NNW 04:47:58 21° NNE 04:55:54 10° ENE visible
28 Apr - 07:01:49 10° NW 07:13:23 52° NNE 07:19:48 10° ESE daylight
28 Apr - 09:28:01 10° W 09:33:59 26° SW 09:38:16 10° SSE daylight
28 Apr - 16:41:20 10° S 16:46:45 16° SE 16:53:57 10° ESE daylight
28 Apr - 18:57:43 10° SW 19:09:12 66° SE 19:29:39 10° ENE visible
28 Apr - 21:19:23 10° WSW 21:35:00 54° NNW 21:57:44 10° NE visible
28 Apr - 23:49:05 10° WNW 00:05:51 26° NNW 00:23:09 10° NNE visible
29 Apr - 02:27:37 10° NW 02:40:16 17° N 02:50:28 10° NE visible
29 Apr - 04:57:49 10° NNW 05:10:36 26° NNE 05:18:46 10° ENE visible
29 Apr - 07:23:14 10° NW 07:34:50 76° NE 07:41:06 10° ESE daylight
29 Apr - 09:51:25 10° WSW 09:54:55 15° SW 09:57:48 10° S daylight
29 Apr - 17:00:51 10° S 17:08:03 24° SE 17:19:00 10° E daylight
29 Apr - 19:18:37 10° SW 19:30:34 84° SE 19:51:56 10° NE visible
29 Apr - 21:41:37 10° W 21:57:24 44° NNW 22:19:09 10° NE visible
30 Apr - 00:13:42 10° WNW 00:29:33 22° NNW 00:45:05 10° NNE visible
30 Apr - 02:50:53 10° NNW 03:03:59 19° N 03:14:03 10° NE visible
30 Apr - 05:19:04 10° NW 05:32:55 34° NNE 05:41:08 10° E visible
30 Apr - 07:45:00 10° WNW 07:56:01 73° SW 08:02:04 10° SE daylight
30 Apr - 17:20:55 10° SSW 17:29:10 34° SE 17:43:00 10° ENE daylight
30 Apr - 19:39:48 10° WSW 19:52:08 79° NW 20:13:53 10° NE visible
30 Apr - 22:04:21 10° W 22:20:06 36° NNW 22:40:35 10° NE visible
01 May - 00:38:33 10° NW 00:53:32 20° N 01:07:32 10° NNE visible
01 May - 03:13:17 10° NNW 03:27:24 21° NNE 03:37:36 10° ENE visible
01 May - 05:40:22 10° NW 05:55:00 45° NNE 06:03:05 10° E daylight
01 May - 08:07:08 10° WNW 08:16:59 46° SW 08:22:44 10° SSE daylight
01 May - 17:41:18 10° SSW 17:50:12 48° SE 18:06:13 10° ENE daylight
01 May - 20:01:14 10° WSW 20:13:57 63° NNW 20:35:34 10° NE visible
01 May - 22:27:37 10° WNW 22:43:10 29° NNW 23:02:10 10° NNE visible
02 May - 01:03:07 10° NW 01:17:41 19° N 01:30:40 10° NE visible
02 May - 03:35:08 10° NNW 03:50:27 26° NNE 04:00:49 10° ENE visible
02 May - 06:01:49 10° NW 06:16:45 61° NNE 06:24:39 10° ESE daylight
02 May - 08:29:48 10° W 08:37:51 29° SW 08:43:02 10° SSE daylight
02 May - 15:46:55 10° SSE 15:50:00 12° SE 15:53:40 10° ESE daylight
02 May - 18:01:57 10° SW 18:11:17 66° SE 18:28:53 10° ENE visible
02 May - 20:23:01 10° WSW 20:36:03 50° NNW 20:57:07 10° NE visible
02 May - 22:51:26 10° WNW 23:06:36 25° NNW 23:24:03 10° NNE visible
03 May - 01:26:57 10° NW 01:41:47 20° N 01:54:20 10° NE visible
03 May - 03:56:41 10° NW 04:13:11 32° NNE 04:23:34 10° E visible
03 May - 06:23:28 10° NW 06:38:14 84° NE 06:45:52 10° ESE daylight
03 May - 08:53:18 10° W 08:58:44 18° SW 09:02:47 10° S daylight
03 May - 16:05:42 10° S 16:11:10 20° SE 16:19:04 10° E daylight
03 May - 18:22:50 10° SW 18:32:33 86° SE 18:51:06 10° NE visible
03 May - 20:45:13 10° W 20:58:27 40° NNW 21:18:37 10° NE visible
03 May - 23:15:40 10° NW 23:30:25 22° N 23:46:24 10° NNE visible
